When you browse on this site, cookies collect data to enhance your experience and personalize the content and advertising you see.
Visit our Privacy Policy to learn more. By continuing to use the site, you agree to this use of cookies and data.
  • In Portugal
  • List of Countries
  • For 7 days
  • Water Temperature
  • Satellite Maps
  • Weather Map
  • Weather Widgets
  • user-avatar
    Login

    Hourly Weather El Quseir

    Today, 22 March, Friday

    Time Temperature Precipitation Wind Pressure Humidity
    00:00 +24°C° 0 mm 7 mps 759 mmHg 39%
    01:00 +23°C° 0 mm 8 mps 759 mmHg 39%
    02:00 +23°C° 0 mm 8 mps 759 mmHg 40%
    03:00 +22°C° 0 mm 8 mps 759 mmHg 41%
    04:00 +22°C° 0 mm 7 mps 759 mmHg 41%
    05:00 +21°C° 0 mm 7 mps 759 mmHg 42%
    06:00 +22°C° 0 mm 7 mps 759 mmHg 38%
    07:00 +23°C° 0 mm 7 mps 760 mmHg 34%
    08:00 +24°C° 0 mm 7 mps 760 mmHg 30%
    09:00 +27°C° 0 mm 7 mps 760 mmHg 26%
    10:00 +28°C° 0 mm 7 mps 760 mmHg 23%
    11:00 +29°C° 0 mm 7 mps 760 mmHg 19%
    12:00 +29°C° 0 mm 6 mps 759 mmHg 19%
    13:00 +30°C° 0 mm 6 mps 759 mmHg 20%
    14:00 +30°C° 0 mm 6 mps 758 mmHg 20%
    15:00 +29°C° 0 mm 5 mps 758 mmHg 21%
    16:00 +29°C° 0 mm 5 mps 758 mmHg 22%
    17:00 +28°C° 0 mm 4 mps 758 mmHg 24%
    18:00 +27°C° 0 mm 4 mps 758 mmHg 26%
    19:00 +27°C° 0 mm 4 mps 758 mmHg 28%
    20:00 +26°C° 0 mm 4 mps 759 mmHg 30%
    21:00 +26°C° 0 mm 4 mps 759 mmHg 29%
    22:00 +26°C° 0 mm 5 mps 759 mmHg 29%
    23:00 +26°C° 0 mm 5 mps 759 mmHg 29%

    Tomorrow, 23 March, Saturday

    Time Temperature Precipitation Wind Pressure Humidity
    00:00 +25°C° 0 mm 5 mps 759 mmHg 27%
    01:00 +25°C° 0 mm 5 mps 759 mmHg 25%
    02:00 +25°C° 0 mm 5 mps 758 mmHg 23%
    03:00 +25°C° 0 mm 5 mps 758 mmHg 24%
    04:00 +25°C° 0 mm 4 mps 758 mmHg 24%
    05:00 +25°C° 0 mm 4 mps 758 mmHg 24%
    06:00 +25°C° 0 mm 4 mps 758 mmHg 24%
    07:00 +25°C° 0 mm 4 mps 758 mmHg 24%
    08:00 +26°C° 0 mm 3 mps 758 mmHg 24%
    09:00 +27°C° 0 mm 3 mps 758 mmHg 22%
    10:00 +28°C° 0 mm 3 mps 758 mmHg 20%
    11:00 +29°C° 0 mm 3 mps 757 mmHg 18%
    12:00 +30°C° 0 mm 4 mps 757 mmHg 18%
    13:00 +30°C° 0 mm 5 mps 756 mmHg 18%
    14:00 +32°C° 0 mm 5 mps 756 mmHg 18%
    15:00 +30°C° 0 mm 6 mps 756 mmHg 20%
    16:00 +29°C° 0 mm 6 mps 755 mmHg 23%
    17:00 +28°C° 0 mm 6 mps 755 mmHg 25%
    18:00 +27°C° 0 mm 5 mps 755 mmHg 28%
    19:00 +27°C° 0 mm 4 mps 756 mmHg 30%
    20:00 +26°C° 0 mm 3 mps 756 mmHg 33%
    21:00 +25°C° 0 mm 3 mps 755 mmHg 34%
    22:00 +25°C° 0 mm 3 mps 755 mmHg 36%
    23:00 +25°C° 0 mm 3 mps 755 mmHg 37%

    Day after tomorrow, 24 March, Sunday

    Time Temperature Precipitation Wind Pressure Humidity
    00:00 +24°C° 0 mm 2 mps 754 mmHg 38%
    01:00 +24°C° 0 mm 2 mps 753 mmHg 39%
    02:00 +23°C° 0 mm 1 mps 753 mmHg 40%
    03:00 +23°C° 0 mm 2 mps 752 mmHg 39%
    04:00 +23°C° 0 mm 2 mps 752 mmHg 38%
    05:00 +21°C° 0 mm 3 mps 752 mmHg 37%
    06:00 +22°C° 0 mm 3 mps 752 mmHg 35%
    07:00 +25°C° 0 mm 4 mps 752 mmHg 33%
    08:00 +26°C° 0 mm 5 mps 753 mmHg 30%
    09:00 +27°C° 0 mm 5 mps 752 mmHg 28%
    10:00 +28°C° 0 mm 5 mps 752 mmHg 26%
    11:00 +29°C° 0 mm 5 mps 752 mmHg 25%
    12:00 +30°C° 0 mm 5 mps 751 mmHg 24%
    13:00 +30°C° 0 mm 6 mps 751 mmHg 24%
    14:00 +32°C° 0 mm 6 mps 750 mmHg 23%
    15:00 +30°C° 0 mm 6 mps 750 mmHg 25%
    16:00 +30°C° 0 mm 5 mps 750 mmHg 26%
    17:00 +29°C° 0 mm 5 mps 750 mmHg 27%
    18:00 +28°C° 0 mm 5 mps 750 mmHg 30%
    19:00 +27°C° 0 mm 5 mps 751 mmHg 34%
    20:00 +27°C° 0 mm 6 mps 751 mmHg 37%
    21:00 +26°C° 0 mm 6 mps 751 mmHg 37%
    22:00 +26°C° 0 mm 7 mps 751 mmHg 37%
    23:00 +24°C° 0 mm 7 mps 751 mmHg 36%

    25 March, Monday

    Time Temperature Precipitation Wind Pressure Humidity
    00:00 +24°C° 0 mm 7 mps 751 mmHg 35%
    01:00 +24°C° 0 mm 8 mps 751 mmHg 33%
    02:00 +24°C° 0 mm 8 mps 751 mmHg 32%
    03:00 +23°C° 0 mm 9 mps 751 mmHg 32%
    04:00 +23°C° 0 mm 10 mps 751 mmHg 32%
    05:00 +22°C° 0 mm 11 mps 752 mmHg 33%
    06:00 +23°C° 0 mm 11 mps 752 mmHg 31%
    07:00 +23°C° 0 mm 11 mps 753 mmHg 30%
    08:00 +24°C° 0 mm 11 mps 753 mmHg 29%
    09:00 +26°C° 0 mm 11 mps 753 mmHg 27%
    10:00 +27°C° 0 mm 10 mps 754 mmHg 25%
    11:00 +28°C° 0 mm 10 mps 754 mmHg 23%
    12:00 +28°C° 0 mm 10 mps 753 mmHg 23%
    13:00 +28°C° 0 mm 11 mps 753 mmHg 23%
    14:00 +28°C° 0 mm 11 mps 753 mmHg 23%
    15:00 +27°C° 0 mm 11 mps 753 mmHg 24%
    16:00 +27°C° 0 mm 11 mps 754 mmHg 24%
    17:00 +26°C° 0 mm 11 mps 754 mmHg 24%
    18:00 +26°C° 0 mm 11 mps 755 mmHg 28%
    19:00 +24°C° 0 mm 10 mps 756 mmHg 32%
    20:00 +23°C° 0 mm 10 mps 756 mmHg 36%
    21:00 +22°C° 0 mm 9 mps 756 mmHg 37%
    22:00 +22°C° 0 mm 8 mps 757 mmHg 38%
    23:00 +21°C° 0 mm 6 mps 757 mmHg 39%

    26 March, Tuesday

    Time Temperature Precipitation Wind Pressure Humidity
    00:00 +21°C° 0 mm 6 mps 757 mmHg 40%
    01:00 +20°C° 0 mm 6 mps 757 mmHg 41%
    02:00 +20°C° 0 mm 5 mps 757 mmHg 42%
    03:00 +19°C° 0 mm 5 mps 757 mmHg 43%
    04:00 +19°C° 0 mm 5 mps 757 mmHg 45%
    05:00 +19°C° 0 mm 6 mps 757 mmHg 46%
    06:00 +19°C° 0 mm 5 mps 758 mmHg 43%
    07:00 +20°C° 0 mm 5 mps 758 mmHg 40%
    08:00 +21°C° 0 mm 4 mps 759 mmHg 38%
    09:00 +22°C° 0 mm 4 mps 759 mmHg 33%
    10:00 +24°C° 0 mm 3 mps 759 mmHg 28%
    11:00 +25°C° 0 mm 3 mps 759 mmHg 24%
    12:00 +25°C° 0 mm 4 mps 758 mmHg 25%
    13:00 +26°C° 0 mm 4 mps 758 mmHg 26%
    14:00 +26°C° 0 mm 5 mps 758 mmHg 27%
    15:00 +26°C° 0 mm 5 mps 758 mmHg 29%
    16:00 +25°C° 0 mm 4 mps 758 mmHg 31%
    17:00 +25°C° 0 mm 3 mps 758 mmHg 33%
    18:00 +24°C° 0 mm 3 mps 759 mmHg 34%
    19:00 +24°C° 0 mm 2 mps 759 mmHg 35%
    20:00 +24°C° 0 mm 2 mps 759 mmHg 37%
    21:00 +23°C° 0 mm 1 mps 759 mmHg 38%
    22:00 +23°C° 0 mm 1 mps 759 mmHg 39%
    23:00 +22°C° 0 mm 1 mps 759 mmHg 40%

    27 March, Wednesday

    Time Temperature Precipitation Wind Pressure Humidity
    00:00 +22°C° 0 mm 1 mps 759 mmHg 40%
    01:00 +20°C° 0 mm 2 mps 759 mmHg 41%
    02:00 +20°C° 0 mm 2 mps 759 mmHg 41%
    03:00 +19°C° 0 mm 2 mps 760 mmHg 40%
    04:00 +19°C° 0 mm 2 mps 760 mmHg 39%
    05:00 +18°C° 0 mm 2 mps 760 mmHg 38%
    06:00 +20°C° 0 mm 2 mps 761 mmHg 34%
    07:00 +21°C° 0 mm 2 mps 761 mmHg 30%
    08:00 +23°C° 0 mm 2 mps 762 mmHg 25%
    09:00 +24°C° 0 mm 3 mps 762 mmHg 23%
    10:00 +25°C° 0 mm 3 mps 762 mmHg 21%
    11:00 +26°C° 0 mm 3 mps 762 mmHg 19%
    12:00 +26°C° 0 mm 4 mps 761 mmHg 21%
    13:00 +26°C° 0 mm 4 mps 761 mmHg 23%
    14:00 +27°C° 0 mm 5 mps 760 mmHg 24%
    15:00 +26°C° 0 mm 4 mps 760 mmHg 25%
    16:00 +26°C° 0 mm 4 mps 760 mmHg 26%
    17:00 +25°C° 0 mm 3 mps 761 mmHg 27%
    18:00 +25°C° 0 mm 3 mps 761 mmHg 29%
    19:00 +25°C° 0 mm 3 mps 761 mmHg 31%
    20:00 +24°C° 0 mm 2 mps 762 mmHg 33%
    21:00 +24°C° 0 mm 3 mps 761 mmHg 34%
    22:00 +22°C° 0 mm 3 mps 761 mmHg 35%
    23:00 +22°C° 0 mm 4 mps 761 mmHg 37%
    Show more